Flag for Canada Weather past 2 weeks in Calgary, Alberta, Canada

Now
66 °F

Partly sunny.


Feels Like: 66 °F
Forecast: 52 / 79 °F
Wind: 5 mph from Southwest

Location: Calgary International

Current Time: Aug 27, 2014 at 9:04:21 AM

Latest Report: Aug 27, 2014 at 8:00 AM


Visibility: 20 mi

Pressure: 29.94 "Hg

Humidity: 52%

Dew point: 48 °F

Location of CalgaryLocation

Historic Weather in Calgary — Graph

°F

Calgary temperature yesterday

Maximum temperature yesterday: 77 °F (at 4:00 PM)
Minimum temperature yesterday: 48 °F (at 6:00 AM)
Average temperature yesterday: 64 °F

Past Weeks' High & Low Weather Summary

 TemperatureHumidityPressure
High86 °F (Aug 12, 4:00 PM)100% (Aug 24, 4:00 AM)30.41 "Hg (Aug 24, 4:00 AM)
Low43 °F (Aug 25, 3:00 AM)29% (Aug 12, 4:00 PM)29.69 "Hg (Aug 19, 4:00 PM)
Average61 °F70%30.04 "Hg
* Reported Aug 12 7:00 AM — Aug 27 7:00 AM, Calgary, Weather by CustomWeather, © 2014

Note: Actual official high and low records may vary slightly from our data, if they occured in-between our weather recording intervals... More about our weather records

Advertising

Calgary weather history for previous 24 hours

 ConditionsComfort  
Time TempWeatherWind HumidityBarometerVisibility
7:00 AM
Aug 27
64 °FPartly cloudy.12 mph52%29.93 "Hg20 mi
6:00 AM59 °FPassing clouds.5 mph63%29.93 "Hg15 mi
5:00 AM57 °FPassing clouds.No wind67%29.93 "Hg15 mi
4:00 AM57 °FPassing clouds.3 mph67%29.93 "Hg15 mi
3:00 AM59 °FPassing clouds.3 mph59%29.94 "Hg15 mi
2:00 AM61 °FClear.3 mph59%29.94 "Hg15 mi
1:00 AM64 °FPassing clouds.5 mph52%29.93 "Hg15 mi
12:00 AM66 °FPassing clouds.5 mph49%29.93 "Hg15 mi
11:00 PM
Aug 26
66 °FPassing clouds.8 mph49%29.94 "Hg15 mi
10:00 PM68 °FPassing clouds.3 mph46%29.95 "Hg15 mi
9:00 PM72 °FPassing clouds.6 mph41%29.94 "Hg15 mi
8:00 PM73 °FPassing clouds.8 mph38%29.94 "Hg15 mi
7:00 PM77 °FPassing clouds.9 mph30%29.94 "Hg15 mi
6:00 PM77 °FPassing clouds.No wind30%29.95 "Hg15 mi
5:00 PM77 °FPassing clouds.5 mph30%29.96 "Hg15 mi
4:00 PM77 °FPassing clouds.2 mph30%29.98 "Hg15 mi
3:00 PM75 °FPassing clouds.2 mph31%29.99 "Hg15 mi
2:00 PM73 °FPassing clouds.5 mph33%30.00 "Hg10 mi
1:00 PM72 °FPassing clouds.6 mph33%30.00 "Hg10 mi
12:00 PM70 °FPassing clouds.6 mph35%30.02 "Hg10 mi
11:00 AM66 °FPartly sunny.8 mph35%30.03 "Hg10 mi
10:00 AM64 °FPartly sunny.2 mph49%30.02 "Hg10 mi
9:00 AM57 °FScattered clouds.5 mph59%30.04 "Hg10 mi
Weather by CustomWeather, © 2014

See weather overviewHow to use our weather pages